| time (UTC) | temp C | wind direction | speed KPH | gust KPH | rain 1hr cm | rain 24hr cm | rain mn cm | humidity % | barometer mb |
| 20260502233647 | 8 | 0 | 0.0 | 0.0 | 0.00 | 0.00 | 0.00 | 48 | 1007.7 |
| 20260502233146 | 8 | 0 | 0.0 | 1.6 | 0.00 | 0.00 | 0.00 | 48 | 1007.8 |
| 20260502232146 | 8 | 0 | 0.0 | 1.6 | 0.00 | 0.00 | 0.00 | 49 | 1007.8 |
| 20260502231647 | 8 | 0 | 0.0 | 1.6 | 0.00 | 0.00 | 0.00 | 49 | 1007.8 |
| 20260502230839 | 8 | 0 | 0.0 | 0.0 | 0.00 | 0.00 | 0.00 | 49 | 1007.8 |
| 20260502230339 | 8 | 0 | 0.0 | 0.0 | 0.00 | 0.00 | 0.00 | 47 | 1007.8 |
| 20260502225839 | 8 | 0 | 0.0 | 0.0 | 0.00 | 0.00 | 0.00 | 48 | 1007.9 |
| 20260502225339 | 8 | 0 | 0.0 | 0.0 | 0.00 | 0.00 | 0.00 | 48 | 1007.9 |
| 20260502224839 | 8 | 0 | 0.0 | 1.6 | 0.00 | 0.00 | 0.00 | 47 | 1007.9 |
| 20260502224339 | 8 | 0 | 0.0 | 1.6 | 0.00 | 0.00 | 0.00 | 47 | 1007.9 |
| 20260502223839 | 8 | 0 | 0.0 | 1.6 | 0.00 | 0.00 | 0.00 | 47 | 1007.9 |
| 20260502223339 | 8 | 0 | 0.0 | 1.6 | 0.00 | 0.00 | 0.00 | 47 | 1007.9 |
| 20260502222839 | 8 | 0 | 0.0 | 1.6 | 0.00 | 0.00 | 0.00 | 47 | 1007.9 |
| 20260502222339 | 8 | 0 | 0.0 | 1.6 | 0.00 | 0.00 | 0.00 | 46 | 1007.9 |
| 20260502221839 | 8 | 0 | 0.0 | 1.6 | 0.00 | 0.00 | 0.00 | 47 | 1007.9 |
| 20260502221340 | 8 | 0 | 0.0 | 1.6 | 0.00 | 0.00 | 0.00 | 46 | 1007.9 |
| 20260502220430 | 8 | 0 | 0.0 | 3.2 | 0.00 | 0.00 | 0.00 | 46 | 1007.9 |
| 20260502215930 | 8 | 0 | 0.0 | 16.1 | 0.00 | 0.00 | 0.00 | 46 | 1007.8 |
| 20260502215432 | 8 | 0 | 0.0 | 16.1 | 0.00 | 0.00 | 0.00 | 46 | 1007.9 |
| 20260502214930 | 8 | 0 | 0.0 | 1.6 | 0.00 | 0.00 | 0.00 | 47 | 1007.9 |
| 20260502214430 | 8 | 0 | 0.0 | 1.6 | 0.00 | 0.00 | 0.00 | 46 | 1007.9 |
| 20260502213930 | 8 | 0 | 0.0 | 3.2 | 0.00 | 0.00 | 0.00 | 45 | 1007.9 |
| 20260502213430 | 8 | 0 | 0.0 | 3.2 | 0.00 | 0.00 | 0.00 | 46 | 1007.9 |
| 20260502212930 | 8 | 0 | 0.0 | 3.2 | 0.00 | 0.00 | 0.00 | 45 | 1007.9 |
| 20260502212431 | 8 | 0 | 0.0 | 3.2 | 0.00 | 0.00 | 0.00 | 45 | 1007.9 |
| 20260502211430 | 8 | 0 | 0.0 | 4.8 | 0.00 | 0.00 | 0.00 | 46 | 1008.0 |
| 20260502210930 | 8 | 0 | 0.0 | 6.4 | 0.00 | 0.00 | 0.00 | 45 | 1008.0 |
| 20260502210430 | 8 | 0 | 0.0 | 11.3 | 0.00 | 0.00 | 0.00 | 45 | 1008.1 |
| 20260502205930 | 8 | 0 | 0.0 | 11.3 | 0.00 | 0.00 | 0.00 | 45 | 1008.1 |
| 20260502205341 | 8 | 0 | 0.0 | 1.6 | 0.00 | 0.00 | 0.00 | 46 | 1008.0 |
| 20260502204841 | 8 | 0 | 0.0 | 3.2 | 0.00 | 0.00 | 0.00 | 45 | 1008.1 |
| 20260502204341 | 8 | 0 | 0.0 | 3.2 | 0.00 | 0.00 | 0.00 | 47 | 1008.1 |
| 20260502203841 | 8 | 0 | 0.0 | 3.2 | 0.00 | 0.00 | 0.00 | 47 | 1008.1 |
| 20260502203341 | 8 | 0 | 0.0 | 3.2 | 0.00 | 0.00 | 0.00 | 46 | 1008.2 |
| 20260502202841 | 7 | 0 | 0.0 | 1.6 | 0.00 | 0.00 | 0.00 | 47 | 1008.2 |
| 20260502202341 | 7 | 0 | 0.0 | 1.6 | 0.00 | 0.00 | 0.00 | 46 | 1008.3 |
| 20260502201841 | 7 | 0 | 0.0 | 1.6 | 0.00 | 0.00 | 0.00 | 46 | 1008.4 |
| 20260502201341 | 7 | 0 | 0.0 | 0.0 | 0.00 | 0.00 | 0.00 | 46 | 1008.4 |
| 20260502200841 | 8 | 0 | 0.0 | 0.0 | 0.00 | 0.00 | 0.00 | 45 | 1008.5 |
| 20260502200118 | 8 | 0 | 0.0 | 11.3 | 0.00 | 0.00 | 0.00 | 46 | 1008.5 |
| 20260502195618 | 8 | 0 | 0.0 | 11.3 | 0.00 | 0.00 | 0.00 | 44 | 1008.6 |
| 20260502194618 | 8 | 0 | 0.0 | 0.0 | 0.00 | 0.00 | 0.00 | 46 | 1008.7 |
| 20260502194118 | 8 | 0 | 0.0 | 3.2 | 0.00 | 0.00 | 0.00 | 45 | 1008.7 |
| 20260502193618 | 7 | 0 | 0.0 | 3.2 | 0.00 | 0.00 | 0.00 | 46 | 1008.7 |
| 20260502193118 | 7 | 0 | 0.0 | 8.0 | 0.00 | 0.00 | 0.00 | 46 | 1008.8 |
| 20260502192618 | 8 | 0 | 0.0 | 8.0 | 0.00 | 0.00 | 0.00 | 46 | 1008.8 |
| 20260502192118 | 8 | 0 | 0.0 | 1.6 | 0.00 | 0.00 | 0.00 | 46 | 1008.9 |
| 20260502191618 | 8 | 0 | 0.0 | 14.5 | 0.00 | 0.00 | 0.00 | 46 | 1008.9 |
| 20260502191118 | 7 | 0 | 0.0 | 14.5 | 0.00 | 0.00 | 0.00 | 46 | 1009.0 |
| 20260502190618 | 7 | 0 | 0.0 | 4.8 | 0.00 | 0.00 | 0.00 | 45 | 1009.0 |
| 20260502190118 | 7 | 0 | 0.0 | 8.0 | 0.00 | 0.00 | 0.00 | 45 | 1009.0 |
| 20260502185618 | 7 | 0 | 0.0 | 8.0 | 0.00 | 0.00 | 0.00 | 44 | 1009.0 |
| 20260502184618 | 8 | 0 | 0.0 | 11.3 | 0.00 | 0.00 | 0.00 | 43 | 1009.0 |
| 20260502184118 | 8 | 0 | 0.0 | 11.3 | 0.00 | 0.00 | 0.00 | 43 | 1009.1 |
| 20260502183618 | 8 | 0 | 0.0 | 3.2 | 0.00 | 0.00 | 0.00 | 45 | 1009.1 |
| 20260502183118 | 7 | 0 | 0.0 | 1.6 | 0.00 | 0.00 | 0.00 | 46 | 1009.1 |
| 20260502182118 | 7 | 0 | 0.0 | 6.4 | 0.00 | 0.00 | 0.00 | 43 | 1009.2 |
| 20260502181618 | 8 | 0 | 0.0 | 6.4 | 0.00 | 0.00 | 0.00 | 42 | 1009.2 |
| 20260502181118 | 8 | 0 | 0.0 | 6.4 | 0.00 | 0.00 | 0.00 | 43 | 1009.2 |
| 20260502180618 | 8 | 0 | 0.0 | 1.6 | 0.00 | 0.00 | 0.00 | 44 | 1009.2 |
| 20260502180118 | 7 | 0 | 0.0 | 1.6 | 0.00 | 0.00 | 0.00 | 43 | 1009.3 |
| 20260502170118 | 7 | 0 | 0.0 | 4.8 | 0.00 | 0.00 | 0.00 | 45 | 1009.6 |
| 20260502164119 | 6 | 0 | 0.0 | 1.6 | 0.00 | 0.00 | 0.00 | 49 | 1009.8 |
| 20260502163618 | 6 | 0 | 0.0 | 1.6 | 0.00 | 0.00 | 0.00 | 47 | 1009.9 |
| 20260502163118 | 6 | 0 | 0.0 | 1.6 | 0.00 | 0.00 | 0.00 | 48 | 1009.8 |
| 20260502162618 | 6 | 0 | 0.0 | 0.0 | 0.00 | 0.00 | 0.00 | 49 | 1009.9 |
| 20260502162118 | 6 | 0 | 0.0 | 1.6 | 0.00 | 0.00 | 0.00 | 47 | 1009.8 |
| 20260502161618 | 6 | 0 | 0.0 | 1.6 | 0.00 | 0.00 | 0.00 | 49 | 1009.8 |
| 20260502161027 | 6 | 0 | 0.0 | 6.4 | 0.00 | 0.00 | 0.00 | 47 | 1010.0 |
| 20260502160527 | 6 | 0 | 0.0 | 6.4 | 0.00 | 0.00 | 0.00 | 47 | 1010.0 |
| 20260502151850 | 5 | 0 | 0.0 | 4.8 | 0.00 | 0.00 | 0.00 | 50 | 1009.9 |
| 20260502151350 | 5 | 0 | 0.0 | 4.8 | 0.00 | 0.00 | 0.00 | 50 | 1009.9 |
| 20260502150850 | 6 | 0 | 0.0 | 6.4 | 0.00 | 0.00 | 0.00 | 50 | 1009.9 |
| 20260502150350 | 6 | 0 | 0.0 | 6.4 | 0.00 | 0.00 | 0.00 | 49 | 1009.8 |
| 20260502130538 | 4 | 0 | 0.0 | 1.6 | 0.00 | 0.00 | 0.00 | 66 | 1010.1 |
| 20260502123157 | 2 | 0 | 0.0 | 3.2 | 0.00 | 0.00 | 0.00 | 70 | 1009.9 |
| 20260502122657 | 2 | 0 | 0.0 | 1.6 | 0.00 | 0.00 | 0.00 | 71 | 1009.9 |
| 20260502122157 | 2 | 0 | 0.0 | 0.0 | 0.00 | 0.00 | 0.00 | 73 | 1009.9 |
| 20260502121657 | 2 | 0 | 0.0 | 0.0 | 0.00 | 0.00 | 0.00 | 73 | 1009.9 |
| 20260502120439 | 1 | 0 | 0.0 | 3.2 | 0.00 | 0.00 | 0.00 | 74 | 1009.7 |
| 20260502115438 | 1 | 0 | 0.0 | 0.0 | 0.00 | 0.00 | 0.00 | 75 | 1009.7 |
| 20260502113945 | 1 | 0 | 0.0 | 1.6 | 0.00 | 0.00 | 0.00 | 76 | 1009.6 |
| 20260502113445 | 1 | 0 | 0.0 | 1.6 | 0.00 | 0.00 | 0.00 | 76 | 1009.6 |
| 20260502112945 | 0 | 0 | 0.0 | 1.6 | 0.00 | 0.00 | 0.00 | 76 | 1009.6 |
| 20260502111945 | 0 | 0 | 0.0 | 3.2 | 0.00 | 0.00 | 0.00 | 76 | 1009.5 |
| 20260502110945 | 0 | 0 | 0.0 | 0.0 | 0.00 | 0.00 | 0.00 | 76 | 1009.4 |
| 20260502105945 | 0 | 0 | 0.0 | 0.0 | 0.00 | 0.00 | 0.00 | 76 | 1009.4 |
| 20260502105445 | 0 | 0 | 0.0 | 0.0 | 0.00 | 0.00 | 0.00 | 75 | 1009.3 |
| 20260502104945 | 0 | 0 | 0.0 | 0.0 | 0.00 | 0.00 | 0.00 | 75 | 1009.3 |
| 20260502104136 | 1 | 0 | 0.0 | 0.0 | 0.00 | 0.00 | 0.00 | 75 | 1009.3 |
| 20260502103636 | 1 | 0 | 0.0 | 0.0 | 0.00 | 0.00 | 0.00 | 74 | 1009.3 |
| 20260502103137 | 1 | 0 | 0.0 | 0.0 | 0.00 | 0.00 | 0.00 | 74 | 1009.3 |
| 20260502102636 | 1 | 0 | 0.0 | 1.6 | 0.00 | 0.00 | 0.00 | 74 | 1009.3 |
| 20260502101636 | 1 | 0 | 0.0 | 0.0 | 0.00 | 0.00 | 0.00 | 73 | 1009.2 |
| 20260502101137 | 1 | 0 | 0.0 | 0.0 | 0.00 | 0.00 | 0.00 | 73 | 1009.2 |
| 20260502100636 | 1 | 0 | 0.0 | 0.0 | 0.00 | 0.00 | 0.00 | 72 | 1009.2 |
| 20260502100136 | 1 | 0 | 0.0 | 0.0 | 0.00 | 0.00 | 0.00 | 72 | 1009.1 |
| 20260502091137 | 2 | 0 | 0.0 | 0.0 | 0.00 | 0.00 | 0.00 | 70 | 1008.9 |
| 20260502090636 | 2 | 0 | 0.0 | 1.6 | 0.00 | 0.00 | 0.00 | 70 | 1008.9 |
| 20260502090136 | 2 | 0 | 0.0 | 1.6 | 0.00 | 0.00 | 0.00 | 70 | 1008.9 |
| 20260502070758 | 3 | 0 | 0.0 | 0.0 | 0.00 | 0.00 | 0.00 | 65 | 1008.4 |
| 20260502070257 | 3 | 0 | 0.0 | 0.0 | 0.00 | 0.00 | 0.00 | 64 | 1008.5 |
| 20260502065757 | 3 | 0 | 0.0 | 0.0 | 0.00 | 0.00 | 0.00 | 64 | 1008.5 |
| 20260502065258 | 3 | 0 | 0.0 | 0.0 | 0.00 | 0.00 | 0.00 | 64 | 1008.5 |
| 20260502064758 | 3 | 0 | 0.0 | 0.0 | 0.00 | 0.00 | 0.00 | 64 | 1008.6 |
| 20260502064258 | 3 | 0 | 0.0 | 1.6 | 0.00 | 0.00 | 0.00 | 64 | 1008.6 |
| 20260502063757 | 3 | 0 | 0.0 | 3.2 | 0.00 | 0.00 | 0.00 | 64 | 1008.6 |
| 20260502063258 | 3 | 0 | 0.0 | 3.2 | 0.00 | 0.00 | 0.00 | 64 | 1008.7 |
| 20260502062757 | 3 | 0 | 0.0 | 0.0 | 0.00 | 0.00 | 0.00 | 66 | 1008.7 |
| 20260502062257 | 3 | 0 | 0.0 | 0.0 | 0.00 | 0.00 | 0.00 | 66 | 1008.7 |
| 20260502061758 | 3 | 0 | 0.0 | 0.0 | 0.00 | 0.00 | 0.00 | 65 | 1008.7 |
| 20260502061257 | 3 | 0 | 0.0 | 0.0 | 0.00 | 0.00 | 0.00 | 66 | 1008.7 |
| 20260502060757 | 4 | 0 | 0.0 | 0.0 | 0.00 | 0.00 | 0.00 | 67 | 1008.8 |
| 20260502060257 | 4 | 0 | 0.0 | 0.0 | 0.00 | 0.00 | 0.00 | 67 | 1008.8 |
| 20260502055758 | 4 | 0 | 0.0 | 0.0 | 0.00 | 0.00 | 0.00 | 67 | 1008.8 |
| 20260502055257 | 4 | 0 | 0.0 | 0.0 | 0.00 | 0.00 | 0.00 | 66 | 1008.9 |
| 20260502054759 | 4 | 0 | 0.0 | 0.0 | 0.00 | 0.00 | 0.00 | 65 | 1008.9 |
| 20260502054257 | 4 | 0 | 0.0 | 0.0 | 0.00 | 0.00 | 0.00 | 66 | 1008.9 |
| 20260502053757 | 4 | 0 | 0.0 | 0.0 | 0.00 | 0.00 | 0.00 | 66 | 1008.9 |
| 20260502053258 | 4 | 0 | 0.0 | 0.0 | 0.00 | 0.00 | 0.00 | 66 | 1008.9 |
| 20260502052758 | 4 | 0 | 0.0 | 0.0 | 0.00 | 0.00 | 0.00 | 66 | 1008.9 |
| 20260502052257 | 4 | 0 | 0.0 | 0.0 | 0.00 | 0.00 | 0.00 | 66 | 1008.9 |
| 20260502051758 | 4 | 0 | 0.0 | 0.0 | 0.00 | 0.00 | 0.00 | 66 | 1008.9 |
| 20260502051258 | 4 | 0 | 0.0 | 0.0 | 0.00 | 0.00 | 0.00 | 67 | 1008.8 |
| 20260502050757 | 4 | 0 | 0.0 | 1.6 | 0.00 | 0.00 | 0.00 | 67 | 1008.8 |
| 20260502050257 | 4 | 0 | 0.0 | 1.6 | 0.00 | 0.00 | 0.00 | 67 | 1008.8 |
| 20260502045757 | 4 | 0 | 0.0 | 0.0 | 0.00 | 0.00 | 0.00 | 68 | 1008.8 |
| 20260502045257 | 4 | 0 | 0.0 | 0.0 | 0.00 | 0.00 | 0.00 | 69 | 1008.8 |
| 20260502044758 | 4 | 0 | 0.0 | 0.0 | 0.00 | 0.00 | 0.00 | 68 | 1008.7 |
| 20260502044257 | 4 | 0 | 0.0 | 0.0 | 0.00 | 0.00 | 0.00 | 69 | 1008.7 |
| 20260502043758 | 4 | 0 | 0.0 | 1.6 | 0.00 | 0.00 | 0.00 | 69 | 1008.7 |
| 20260502043257 | 4 | 0 | 0.0 | 1.6 | 0.00 | 0.00 | 0.00 | 69 | 1008.6 |
| 20260502042757 | 4 | 0 | 0.0 | 3.2 | 0.00 | 0.00 | 0.00 | 69 | 1008.5 |
| 20260502042257 | 4 | 0 | 0.0 | 3.2 | 0.00 | 0.00 | 0.00 | 69 | 1008.4 |
| 20260502041758 | 4 | 0 | 0.0 | 0.0 | 0.00 | 0.00 | 0.00 | 70 | 1008.5 |
| 20260502041257 | 4 | 0 | 0.0 | 1.6 | 0.00 | 0.00 | 0.00 | 71 | 1008.4 |
| 20260502040757 | 4 | 0 | 0.0 | 1.6 | 0.00 | 0.00 | 0.00 | 71 | 1008.3 |
| 20260502040258 | 4 | 0 | 0.0 | 0.0 | 0.00 | 0.00 | 0.00 | 71 | 1008.3 |
| 20260502035758 | 4 | 0 | 0.0 | 1.6 | 0.00 | 0.00 | 0.00 | 71 | 1008.2 |
| 20260502035257 | 4 | 0 | 0.0 | 1.6 | 0.00 | 0.00 | 0.00 | 72 | 1008.1 |
| 20260502034257 | 4 | 0 | 0.0 | 1.6 | 0.00 | 0.00 | 0.00 | 72 | 1008.2 |
| 20260502033757 | 4 | 0 | 0.0 | 1.6 | 0.00 | 0.00 | 0.00 | 71 | 1008.2 |
| 20260502033257 | 4 | 0 | 0.0 | 1.6 | 0.00 | 0.00 | 0.00 | 71 | 1008.1 |
| 20260502032759 | 4 | 0 | 0.0 | 0.0 | 0.00 | 0.00 | 0.00 | 71 | 1008.2 |
| 20260502032257 | 4 | 0 | 0.0 | 1.6 | 0.00 | 0.00 | 0.00 | 70 | 1008.2 |
| 20260502031757 | 4 | 0 | 0.0 | 1.6 | 0.00 | 0.00 | 0.00 | 70 | 1008.1 |
| 20260502031257 | 4 | 0 | 0.0 | 1.6 | 0.00 | 0.00 | 0.00 | 70 | 1008.1 |
| 20260502030757 | 4 | 0 | 0.0 | 0.0 | 0.00 | 0.00 | 0.00 | 70 | 1008.0 |
| 20260502030257 | 4 | 0 | 0.0 | 0.0 | 0.00 | 0.00 | 0.00 | 70 | 1008.0 |
| 20260502025759 | 5 | 0 | 0.0 | 0.0 | 0.00 | 0.00 | 0.00 | 70 | 1008.0 |
| 20260502025257 | 5 | 0 | 0.0 | 0.0 | 0.00 | 0.00 | 0.00 | 70 | 1008.0 |
| 20260502024758 | 5 | 0 | 0.0 | 0.0 | 0.00 | 0.00 | 0.00 | 70 | 1008.1 |
| 20260502024257 | 5 | 0 | 0.0 | 0.0 | 0.00 | 0.00 | 0.00 | 70 | 1008.1 |
| 20260502023757 | 5 | 0 | 0.0 | 0.0 | 0.00 | 0.00 | 0.00 | 70 | 1008.0 |
| 20260502023257 | 5 | 0 | 0.0 | 0.0 | 0.00 | 0.00 | 0.00 | 70 | 1008.0 |
| 20260502022759 | 5 | 0 | 0.0 | 0.0 | 0.00 | 0.00 | 0.00 | 70 | 1008.1 |
| 20260502022257 | 5 | 0 | 0.0 | 0.0 | 0.00 | 0.00 | 0.00 | 70 | 1008.1 |
| 20260502021757 | 5 | 0 | 0.0 | 0.0 | 0.00 | 0.00 | 0.00 | 70 | 1008.1 |
| 20260502020639 | 5 | 0 | 0.0 | 8.0 | 0.00 | 0.00 | 0.00 | 70 | 1008.0 |
| 20260502015639 | 5 | 0 | 0.0 | 0.0 | 0.00 | 0.00 | 0.00 | 70 | 1007.8 |
| 20260502015139 | 5 | 0 | 0.0 | 0.0 | 0.00 | 0.00 | 0.00 | 71 | 1007.8 |
| 20260502013957 | 5 | 0 | 0.0 | 0.0 | 0.00 | 0.00 | 0.00 | 70 | 1007.7 |
| 20260502013458 | 5 | 0 | 0.0 | 4.8 | 0.00 | 0.00 | 0.00 | 70 | 1007.7 |
| 20260502012957 | 5 | 0 | 0.0 | 4.8 | 0.00 | 0.00 | 0.00 | 70 | 1007.6 |
| 20260502012457 | 5 | 0 | 0.0 | 1.6 | 0.00 | 0.00 | 0.00 | 71 | 1007.6 |
| 20260502011957 | 5 | 0 | 0.0 | 1.6 | 0.00 | 0.00 | 0.00 | 70 | 1007.6 |
| 20260502011457 | 5 | 0 | 0.0 | 0.0 | 0.00 | 0.00 | 0.00 | 69 | 1007.6 |
| 20260502010957 | 5 | 0 | 0.0 | 1.6 | 0.00 | 0.00 | 0.00 | 69 | 1007.5 |
| 20260502010457 | 5 | 0 | 0.0 | 1.6 | 0.00 | 0.00 | 0.00 | 69 | 1007.5 |
| 20260502005957 | 5 | 0 | 0.0 | 0.0 | 0.00 | 0.00 | 0.00 | 69 | 1007.4 |
| 20260502005457 | 5 | 0 | 0.0 | 1.6 | 0.00 | 0.00 | 0.00 | 68 | 1007.4 |
| 20260502004957 | 6 | 0 | 0.0 | 1.6 | 0.00 | 0.00 | 0.00 | 67 | 1007.4 |
| 20260502004457 | 6 | 0 | 0.0 | 0.0 | 0.00 | 0.00 | 0.00 | 67 | 1007.4 |
| 20260502003957 | 6 | 0 | 0.0 | 0.0 | 0.00 | 0.00 | 0.00 | 67 | 1007.4 |
| 20260502003457 | 6 | 0 | 0.0 | 0.0 | 0.00 | 0.00 | 0.00 | 67 | 1007.3 |
| 20260502002957 | 6 | 0 | 0.0 | 3.2 | 0.00 | 0.00 | 0.00 | 66 | 1007.3 |
| 20260502002457 | 6 | 0 | 0.0 | 3.2 | 0.00 | 0.00 | 0.00 | 66 | 1007.2 |
| 20260502001957 | 6 | 0 | 0.0 | 3.2 | 0.00 | 0.00 | 0.00 | 66 | 1007.2 |
| 20260502001457 | 6 | 0 | 0.0 | 0.0 | 0.00 | 0.00 | 0.00 | 66 | 1007.2 |
| 20260502000957 | 6 | 0 | 0.0 | 0.0 | 0.00 | 0.00 | 0.00 | 65 | 1007.1 |
| 20260502000457 | 6 | 0 | 0.0 | 0.0 | 0.00 | 0.00 | 0.00 | 66 | 1007.1 |
| 20260501235957 | 6 | 0 | 0.0 | 0.0 | 0.00 | 0.00 | 0.00 | 65 | 1007.1 |
| 20260501235457 | 6 | 0 | 0.0 | 0.0 | 0.00 | 0.00 | 0.00 | 66 | 1007.1 |
| 20260501234957 | 6 | 0 | 0.0 | 0.0 | 0.00 | 0.00 | 0.00 | 66 | 1007.1 |
| 20260501234457 | 6 | 0 | 0.0 | 0.0 | 0.00 | 0.00 | 0.00 | 65 | 1007.1 |